User: anonymous   Login
Location: Wingville
(42.9917°N, 90.4915°W)
Time: 02:15:59
(UTC+00:00)
Language:

Cosmos 1805 Rocket - Orbit

View from above orbital plane
View from above orbital plane
View from above satellite
View from above satellite

Ground track
Ground track

The orbit data is extracted from the following two-line orbital elements,

1 17192U 86097B   24107.88194771  .00001283  00000-0  14880-3 0  9997
2 17192  82.5052  73.3426 0017408 147.3580 272.8582 14.84591916 18749
Epoch (UTC): 16 April 2024 21:10:00
Eccentricity: 0.0017408
inclination: 82.5052°
perigee height: 602 km
apogee height: 627 km
right ascension of ascending node: 73.3426°
argument of perigee: 147.3580°
revolutions per day: 14.84591916
mean anomaly at epoch: 272.8582°
orbit number at epoch: 1874

The dashed part of the orbit path shows where the satellite is in the earth's shadow,  

DLR